FW2044 Weather Reports


time (UTC)temp
C
wind
direction
speed
KPH
gust
KPH
rain 1hr
cm
rain 24hr
cm
rain mn
cm
humidity
%
barometer
mb
20260505064541 18 291 1.6 9.7 0.00 0.00 0.00 72 1005.0
20260505063032 18 246 1.6 11.3 0.00 0.00 0.00 72 1005.3
20260505061546 18 290 1.6 9.7 0.00 0.00 0.00 71 1005.4
20260505060028 18 233 0.0 4.8 0.00 0.00 0.00 69 1005.6
20260505054544 18 206 1.6 6.4 0.00 0.00 0.00 69 1005.8
20260505053030 18 236 0.0 3.2 0.00 0.00 0.00 68 1006.0
20260505051525 18 230 0.0 6.4 0.00 0.00 0.00 68 1006.1
20260505041519 18 290 0.0 6.4 0.00 0.00 0.00 65 1006.4
20260505040019 19 222 0.0 8.0 0.00 0.00 0.00 65 1006.5
20260505034519 19 277 0.0 4.8 0.00 0.00 0.00 65 1006.6
20260505033021 19 294 0.0 6.4 0.00 0.00 0.00 66 1006.8
20260505031537 19 286 0.0 8.0 0.00 0.00 0.00 65 1006.8
20260505030017 19 274 0.0 6.4 0.00 0.00 0.00 65 1006.6
20260505024530 20 305 0.0 6.4 0.00 0.00 0.00 63 1006.4
20260505023016 20 240 0.0 3.2 0.00 0.00 0.00 64 1006.3
20260505021519 20 241 0.0 3.2 0.00 0.00 0.00 63 1006.0
20260505020026 20 174 0.0 3.2 0.00 0.00 0.00 62 1005.9
20260505014518 20 221 0.0 3.2 0.00 0.00 0.00 62 1005.7
20260505013014 20 232 0.0 1.6 0.00 0.00 0.00 61 1005.8
20260505011521 21 238 0.0 3.2 0.00 0.00 0.00 61 1005.6
20260505010012 21 231 0.0 9.7 0.00 0.00 0.00 60 1005.4
20260505004524 21 209 0.0 3.2 0.00 0.00 0.00 60 1005.6
20260505003009 21 238 0.0 3.2 0.00 0.00 0.00 59 1005.6
20260505001508 22 219 0.0 1.6 0.00 0.00 0.00 58 1005.6
20260505000011 22 226 0.0 3.2 0.00 0.00 0.00 56 1005.7
20260504234506 22 229 1.6 8.0 0.00 0.00 0.00 55 1005.8
20260504233004 23 229 3.2 11.3 0.00 0.00 0.00 53 1006.0
20260504231501 23 229 1.6 4.8 0.00 0.00 0.00 53 1006.2
20260504230109 23 233 0.0 9.7 0.00 0.00 0.00 52 1006.4
20260504224559 23 234 1.6 17.7 0.00 0.00 0.00 51 1006.5
20260504223104 23 240 1.6 8.0 0.00 0.00 0.00 52 1006.6
20260504221605 23 255 0.0 20.9 0.00 0.00 0.00 52 1006.6
20260504220059 24 239 3.2 12.9 0.00 0.00 0.00 51 1006.9
20260504214557 24 155 0.0 9.7 0.00 0.00 0.00 53 1006.9
20260504213053 23 242 1.6 17.7 0.00 0.00 0.00 51 1007.2
20260504211550 24 145 3.2 9.7 0.00 0.00 0.00 50 1007.5
20260504210051 23 214 3.2 14.5 0.00 0.00 0.00 50 1007.6
20260504204545 24 214 3.2 16.1 0.00 0.00 0.00 50 1007.8
20260504203047 23 230 3.2 12.9 0.00 0.00 0.00 50 1008.0
20260504201542 24 220 1.6 27.4 0.00 0.00 0.00 48 1008.3
20260504200039 24 285 6.4 19.3 0.00 0.00 0.00 49 1008.7
20260504194538 24 181 1.6 17.7 0.00 0.00 0.00 49 1008.8
20260504193035 24 293 6.4 25.7 0.00 0.00 0.00 48 1009.1
20260504191536 23 288 1.6 22.5 0.00 0.00 0.00 52 1009.4
20260504190030 23 272 3.2 11.3 0.00 0.00 0.00 49 1009.4
20260504184530 23 236 3.2 20.9 0.00 0.00 0.00 49 1009.5
20260504183028 23 225 4.8 27.4 0.00 0.00 0.00 50 1009.8
20260504181528 23 238 3.2 16.1 0.00 0.00 0.00 51 1010.0
20260504180022 23 238 4.8 17.7 0.00 0.00 0.00 52 1010.0
20260504174520 22 238 6.4 19.3 0.00 0.00 0.00 51 1010.4
20260504173020 22 230 6.4 24.1 0.00 0.00 0.00 50 1010.5
20260504171517 22 231 3.2 16.1 0.00 0.00 0.00 52 1010.7
20260504081521 16 232 0.0 3.2 0.00 0.00 0.00 68 1011.8